Bookmark and Share
Track history (hours):
 

New Yoshino

Last reported at 2014-Apr-22 22:33 UTC. Time now 2014-Apr-23 15:29 UTC.
Position N 34°36' E 135°23'.

Length 102 m; draft 4.7 m.

Type: Tanker. MMSI: 431300724.

NotesDate/timePositionNaut miles runAvg speedWind from/ knotsBaromVisibWave heightAir tempDewpointWater temp
2014-Apr-22 22:33N 34°36' E 135°23'5 4.2
2014-Apr-22 21:17N 34°32' E 135°19'1 0.7
2014-Apr-22 20:33N 34°32' E 135°18'1212.2
2014-Apr-22 19:33N 34°24' E 135°07'1111.2
2014-Apr-22 18:33N 34°14' E 135°01'9 0.7
2014-Apr-22 06:04N 34°07' E 135°08'1 1.3
2014-Apr-22 05:28N 34°08' E 135°07'0 0.1
2014-Apr-22 04:31N 34°08' E 135°07'0 0.0
2014-Apr-22 03:28N 34°08' E 135°07'0 0.0
2014-Apr-22 02:28N 34°08' E 135°07'0 0.0
2014-Apr-22 01:31N 34°08' E 135°07'0 0.0
2014-Apr-22 00:31N 34°08' E 135°07'0 0.0
2014-Apr-21 23:31N 34°08' E 135°07'0 0.0
2014-Apr-21 22:31N 34°08' E 135°07'0 0.0
2014-Apr-21 21:31N 34°08' E 135°07'5 5.6
2014-Apr-21 20:34N 34°04' E 135°03'22210.5
2014-Apr-20 23:23N 34°54' E 139°25'1113.8
2014-Apr-20 22:33N 35°01' E 139°35'1313.2
2014-Apr-20 21:33N 35°11' E 139°45'1212.2
2014-Apr-20 20:33N 35°23' E 139°42'1212.0
2014-Apr-20 19:33N 35°31' E 139°54'7 7.1
2014-Apr-20 18:33N 35°31' E 140°02'0 0.0
2014-Apr-20 17:15N 35°31' E 140°02'0 0.0
2014-Apr-20 16:21N 35°31' E 140°02'0 0.0
2014-Apr-20 15:33N 35°31' E 140°02'0 0.0
2014-Apr-20 14:33N 35°31' E 140°02'0 0.0
2014-Apr-20 13:33N 35°31' E 140°02'0 0.0
2014-Apr-20 12:33N 35°31' E 140°02'0 0.0
2014-Apr-20 11:33N 35°31' E 140°02'0 0.0
2014-Apr-20 10:30N 35°31' E 140°02'0 0.0
2014-Apr-20 09:33N 35°31' E 140°02'0 0.0
2014-Apr-20 08:33N 35°31' E 140°02'0 0.0
2014-Apr-20 07:33N 35°31' E 140°02'0 0.0
2014-Apr-20 06:30N 35°31' E 140°02'0 0.0
2014-Apr-20 05:33N 35°31' E 140°02'0 0.0
2014-Apr-20 04:33N 35°31' E 140°02'0 0.0
2014-Apr-20 03:33N 35°31' E 140°02'0 0.0
2014-Apr-20 02:33N 35°31' E 140°02'0 0.0
2014-Apr-20 01:15N 35°31' E 140°03'3 4.1
2014-Apr-20 00:33N 35°31' E 139°59'3 3.3
2014-Apr-19 23:31N 35°29' E 139°56'0 0.0
2014-Apr-19 22:28N 35°29' E 139°56'0 0.0
2014-Apr-19 21:28N 35°29' E 139°56'0 0.0
2014-Apr-19 20:31N 35°29' E 139°56'0 0.0
2014-Apr-19 19:28N 35°29' E 139°56'0 0.0
2014-Apr-19 18:28N 35°29' E 139°56'0 0.0
2014-Apr-19 17:31N 35°29' E 139°56'0 0.0
2014-Apr-19 16:31N 35°29' E 139°56'0 0.0
2014-Apr-19 15:31N 35°29' E 139°56'5 5.5
2014-Apr-19 14:34N 35°31' E 140°01'1 1.0
2014-Apr-19 13:27N 35°31' E 140°02'0 0.0
2014-Apr-19 12:30N 35°31' E 140°02'0 0.0
2014-Apr-19 11:30N 35°31' E 140°02'0 0.0
2014-Apr-19 10:33N 35°31' E 140°02'0 0.0
2014-Apr-19 09:33N 35°31' E 140°02'0 0.0
2014-Apr-19 08:30N 35°31' E 140°02'0 0.0
2014-Apr-19 07:27N 35°31' E 140°02'0 0.0
2014-Apr-19 06:33N 35°31' E 140°02'0 0.0
2014-Apr-19 05:33N 35°31' E 140°02'0 0.0
2014-Apr-19 04:33N 35°31' E 140°02'0 0.0
2014-Apr-19 03:33N 35°31' E 140°02'0 0.0
2014-Apr-19 02:33N 35°31' E 140°02'0 0.0
2014-Apr-19 01:33N 35°31' E 140°02'0 0.0
2014-Apr-19 00:33N 35°31' E 140°02'0 0.2
2014-Apr-18 23:33N 35°31' E 140°02'6 6.1
2014-Apr-18 22:33N 35°29' E 139°55'0 0.3
2014-Apr-18 21:29N 35°29' E 139°55'0 0.0
2014-Apr-18 20:29N 35°29' E 139°55'0 0.1
2014-Apr-18 19:32N 35°29' E 139°55'0 0.0
2014-Apr-18 18:32N 35°29' E 139°55'0 0.0
2014-Apr-18 17:32N 35°29' E 139°55'0 0.0
2014-Apr-18 16:32N 35°29' E 139°55'0 0.0
2014-Apr-18 15:32N 35°29' E 139°55'0 0.0
2014-Apr-18 14:32N 35°29' E 139°55'0 0.0
2014-Apr-18 13:32N 35°29' E 139°55'0 0.0
2014-Apr-18 12:32N 35°29' E 139°55'0 0.0
2014-Apr-18 11:32N 35°29' E 139°55'0 0.0
2014-Apr-18 10:32N 35°29' E 139°55'0 0.0
2014-Apr-18 09:32N 35°29' E 139°55'0 0.0
2014-Apr-18 08:29N 35°29' E 139°55'0 0.1
2014-Apr-18 07:32N 35°29' E 139°55'0 0.0
2014-Apr-18 06:32N 35°29' E 139°55'1 1.4
2014-Apr-18 05:33N 35°30' E 139°53'6 6.1
2014-Apr-18 04:32N 35°31' E 139°46'0 0.0
2014-Apr-18 03:32N 35°31' E 139°46'0 0.0
2014-Apr-18 02:08N 35°31' E 139°46'0 0.0
2014-Apr-18 01:32N 35°31' E 139°46'0 0.0
2014-Apr-18 00:32N 35°31' E 139°46'0 0.0
2014-Apr-17 23:26N 35°31' E 139°46'0 0.0
2014-Apr-17 22:14N 35°31' E 139°46'0 0.0
2014-Apr-17 21:32N 35°31' E 139°46'0 0.4
2014-Apr-17 20:34N 35°31' E 139°46'6 6.0
2014-Apr-17 19:34N 35°25' E 139°45'0 0.3
2014-Apr-17 18:31N 35°25' E 139°45'0 0.0
2014-Apr-17 17:32N 35°25' E 139°45'0 0.0
2014-Apr-17 16:31N 35°25' E 139°45'0 0.0
2014-Apr-17 15:28N 35°25' E 139°45'0 0.0
2014-Apr-17 14:32N 35°25' E 139°45'0 0.0
2014-Apr-17 13:31N 35°25' E 139°45'5 5.6
2014-Apr-17 12:33N 35°19' E 139°43'1212.1
2014-Apr-17 11:33N 35°07' E 139°45'1514.8
2014-Apr-17 10:33N 34°57' E 139°31'23012.5
2014-Apr-16 16:10N 33°59' E 135°02'914.0
2014-Apr-16 15:33N 34°07' E 135°04'3 0.2
2014-Apr-16 02:21N 34°07' E 135°08'1 1.0
2014-Apr-16 01:33N 34°08' E 135°07'221 9.2
2014-Apr-15 01:34N 34°56' E 139°29'1312.9
2014-Apr-15 00:34N 35°05' E 139°41'1212.4
2014-Apr-14 23:34N 35°17' E 139°45'1110.9
2014-Apr-14 22:34N 35°27' E 139°47'1212.3
2014-Apr-14 21:34N 35°31' E 140°02'1 0.3
2014-Apr-14 19:31N 35°31' E 140°02'0 0.0
2014-Apr-14 18:31N 35°31' E 140°02'0 0.0
2014-Apr-14 17:31N 35°31' E 140°02'0 0.0
2014-Apr-14 16:31N 35°31' E 140°02'0 0.0
2014-Apr-14 15:31N 35°31' E 140°02'0 0.0
2014-Apr-14 13:31N 35°31' E 140°02'0 0.0
2014-Apr-14 06:31N 35°31' E 140°02'0 0.0
2014-Apr-14 05:31N 35°31' E 140°02'2 0.2
2014-Apr-13 22:33N 35°31' E 140°01'0 0.0
2014-Apr-13 21:33N 35°32' E 140°01'0 0.0
2014-Apr-13 20:33N 35°31' E 140°01'0 0.0
2014-Apr-13 19:33N 35°32' E 140°01'0 0.1
2014-Apr-13 18:33N 35°32' E 140°01'4 4.2
2014-Apr-13 17:34N 35°30' E 139°56'1313.3
2014-Apr-13 16:33N 35°20' E 139°45'1312.8
2014-Apr-13 15:33N 35°08' E 139°46'1414.1
2014-Apr-13 14:33N 34°58' E 139°33'1514.7
2014-Apr-13 13:32N 34°49' E 139°18'  

Dump ship's entire track history

sailing weather and tide predictions

New Yoshino — JG5527 — position and weather